Regional Weather Roundup
Issued by NWS

Home | Current Version | Previous Version | Text Only | Print | Product List | Glossary Off
Versions: 1 2 3 4 5 6 7 8 9 10 11 12 13 14 15 16 17 18 19 20 21 22 23 24 25 26 27 28 29 30 31 32 33 34 35 36 37 38 39 40 41 42 43 44 45 46 47 48 49 50

000
ASUS43 KDTX 220210
RWRMI
MICHIGAN HOURLY REGIONAL WEATHER ROUNDUP
NATIONAL WEATHER SERVICE DETROIT/PONTIAC MI
ISSUED BY NATIONAL WEATHER SERVICE GRAND RAPIDS MI
900 PM EST TUE FEB 21 2017

NOTE: "FAIR" INDICATES FEW OR NO CLOUDS BELOW 12,000 FEET WITH NO
SIGNIFICANT WEATHER AND/OR OBSTRUCTION TO VISIBILITY.

MIZ047>049-052>055-059>063-066>070-074>076-081>083-220300-
SOUTHEAST LOWER MICHIGAN

CITY           SKY/WX    TMP DP  RH WIND       PRES   REMARKS
ADRIAN         MOCLDY    49  47  93 CALM      29.95S
ALMA           CLOUDY    47  46  97 SW8       29.92R FOG
ANN ARBOR      MOCLDY    46  45  96 CALM      29.94S FOG
BAD AXE        FOG       33  33  99 CALM      29.92S VSB<1/4
DETROIT CITY   PTCLDY    53  48  83 W3        29.95S
DETROIT        MOCLDY    54  48  80 W3        29.95S
FLINT          MOCLDY    48  47  96 S6        29.93F FOG
GROSSE ILE     CLOUDY    42  40  94 CALM      29.93S FOG
HILLSDALE      PTCLDY    45  45 100 CALM      29.93F FOG
HOWELL         FOG       47  46  93 SE5       29.93S VSB 1/4

CITY           SKY/WX    TMP DP  RH WIND       PRES   REMARKS
JACKSON        CLEAR     51  47  86 CALM      29.94S
LANSING        CLOUDY    50  47  89 S5        29.93F
MASON          MOCLDY    50  49  99 CALM      29.94S FOG
MONROE         CLOUDY    53  50  89 S10       29.93S
MT. CLEMENS    PTCLDY    39  38  99 N3        29.92S
PONTIAC        PTCLDY    45  43  93 CALM      29.93S
PORT HOPE        N/A     39  39 100 SW3       29.90F
PORT HURON     PTCLDY    39  39 100 CALM      29.94S FOG
TRI CITIES     PTCLDY    47  47 100 S9        29.92S FOG
YPSILANTI      PTCLDY    49  48  97 CALM      29.95R FOG
$$
MIZ043>046-050>051-056>058-064>065-071>073-077>080-220300-
SOUTHWEST LOWER MICHIGAN

CITY           SKY/WX    TMP DP  RH WIND       PRES   REMARKS
BATTLE CREEK   MOCLDY    49  49 100 CALM      29.93F FOG
BENTON HARBOR  FOG       50  48  93 CALM      29.92R VSB 1/2
BIG RAPIDS     CLEAR     41  39  90 CALM      29.89S
COLDWATER      PTCLDY    49  49  98 CALM      29.93F
HOLLAND        FOG       50  49  96 S7        29.91F VSB 1/2
GRAND RAPIDS   CLOUDY    47  45  93 S6        29.90F FOG
KALAMAZOO      MOCLDY    50  47  89 CALM      29.93F
MARSHALL       MOCLDY    51  50  95 CALM      29.93S
MOUNT PLEASANT   N/A     41  41  97 S3        29.90S FOG
MUSKEGON       FOG       42  41  96 SE6       29.89F VSB 1/4
STURGIS        PTCLDY    51  49  95 CALM      29.92F
$$
MIZ016>042-220300-
NORTHERN LOWER MICHIGAN

CITY           SKY/WX    TMP DP  RH WIND       PRES   REMARKS
ALPENA         FOG       30  30 100 CALM      29.87F VSB 1/4
BEAVER ISLAND  CLOUDY    46  37  70 S8        29.82F
BELLAIRE       CLEAR     33  32  96 CALM      29.86F
CADILLAC       CLEAR     34  33  95 CALM      29.86F
CHARLEVOIX     CLEAR     38  34  83 SE5       29.86F WCI  35
GAYLORD        CLEAR     40  31  70 S3        29.85F
HOUGHTON LAKE  CLEAR     35  33  92 S5        29.88F WCI  31
MANISTEE       MOCLDY    36  34  92 E3        29.87F
OSCODA         FOG       39  38  95 SW5       29.89F VSB 1/2
PELLSTON       CLEAR     32  30  92 CALM      29.84F
TRAVERSE CITY  PTCLDY    46  38  73 S3        29.84F
LUDINGTON        N/A     38  38 100 CALM      29.87S FOG
$$
MIZ007>008-015-220300-
EASTERN UPPER MICHIGAN

CITY           SKY/WX    TMP DP  RH WIND       PRES   REMARKS
KINROSS        CLEAR     38  37  97 S6        29.83F WCI  33
MACKINAC ISLAN CLEAR     42  38  83 S9        29.83F
NEWBERRY       MOCLDY    38  37  97 S7        29.80F WCI  32
S. S. MARIE    FOG       39  38  96 E3        29.83F VSB 1/4
$$
MIZ004>006-011>014-085-220300-
CENTRAL UPPER MICHIGAN

CITY           SKY/WX    TMP DP  RH WIND       PRES   REMARKS
MANISTIQUE     PTCLDY    37  36  96 S6        29.80F WCI  32
ESCANABA       CLOUDY    40  34  79 S7        29.79S
MENOMINEE      PTCLDY    48  38  68 SW8       29.80F
SAWYER-GWINN   CLEAR     46  28  49 S8        29.75S
$$
MIZ001>003-009>011-084-220300-
WESTERN UPPER MICHIGAN

CITY           SKY/WX    TMP DP  RH WIND       PRES   REMARKS
IRON MOUNTAIN  CLOUDY    46  29  51 S5        29.75F
HOUGHTON       PTCLDY    40  30  67 E3        29.71F
COPPER HARBOR    N/A     38  32  79 SW8       29.71F WCI  32
IRONWOOD       CLOUDY    50  34  54 SW9G20    29.70F
$$

ABBREVIATIONS USED IN REMARKS
   TC - TEMPERATURE IN CELSIUS
  WCI - WIND CHILL INDEX
   HX - HEAT INDEX
  VSB - VISIBILITY




USA.gov is the U.S. government's official web portal to all federal, state and local government web resources and services.